GW1690 Weather Reports


Display with metric or nautical units.
time (UTC)temp
F
wind
direction
speed
MPH
gust
MPH
rain 1hr
in
rain 24hr
in
rain mn
in
humidity
%
barometer
mb
20260504021522 69 179 1.0 3.0 0.00 0.00 0.00 48 1011.1
20260504021025 69 189 1.0 3.0 0.00 0.00 0.00 48 1011.2
20260504020520 69 179 1.0 2.0 0.00 0.00 0.00 47 1010.8
20260504020024 70 197 1.0 2.0 0.00 0.00 0.00 47 1011.0
20260504015545 70 195 1.0 2.0 0.00 0.00 0.00 47 1010.7
20260504015045 70 191 1.0 2.0 0.00 0.00 0.00 47 1010.4
20260504014604 70 184 1.0 3.0 0.00 0.00 0.00 46 1010.2
20260504014023 71 188 1.0 3.0 0.00 0.00 0.00 46 1010.1
20260504013523 71 187 1.0 3.0 0.00 0.00 0.00 46 1009.9
20260504013023 71 193 1.0 3.0 0.00 0.00 0.00 45 1009.9
20260504012543 71 173 1.0 3.0 0.00 0.00 0.00 45 1009.7
20260504012101 72 189 1.0 2.0 0.00 0.00 0.00 44 1009.6
20260504011520 72 182 1.0 3.0 0.00 0.00 0.00 44 1009.6
20260504011020 72 173 1.0 3.0 0.00 0.00 0.00 44 1009.4
20260504010540 72 187 1.0 2.0 0.00 0.00 0.00 43 1009.3
20260504010023 73 167 1.0 3.0 0.00 0.00 0.00 43 1009.2
20260504005524 73 170 1.0 3.0 0.00 0.00 0.00 43 1009.2
20260504005024 73 179 1.0 3.0 0.00 0.00 0.00 42 1009.0
20260504004544 73 189 1.0 2.0 0.00 0.00 0.00 42 1009.1
20260504004023 74 180 1.0 3.0 0.00 0.00 0.00 41 1008.9
20260504003523 74 184 1.0 3.0 0.00 0.00 0.00 41 1008.9
20260504003022 74 166 2.0 4.0 0.00 0.00 0.00 40 1008.8
20260504002542 74 169 1.0 3.0 0.00 0.00 0.00 40 1008.8
20260504002022 74 171 2.0 4.0 0.00 0.00 0.00 40 1008.8
20260504001523 75 176 1.0 3.0 0.00 0.00 0.00 40 1008.8
20260504001021 75 170 2.0 5.0 0.00 0.00 0.00 39 1008.6
20260504000522 75 180 1.0 4.0 0.00 0.00 0.00 39 1008.7
20260504000023 75 157 3.0 6.0 0.00 0.00 0.00 38 1008.6
20260503235523 75 172 1.0 4.0 0.00 0.00 0.00 38 1008.7
20260503235043 76 199 1.0 5.0 0.00 0.00 0.00 38 1008.7
20260503234523 76 165 2.0 5.0 0.00 0.00 0.00 37 1008.6
20260503234044 76 187 2.0 4.0 0.00 0.00 0.00 37 1008.6
20260503233542 76 176 2.0 6.0 0.00 0.00 0.00 37 1008.6
20260503233022 76 185 2.0 4.0 0.00 0.00 0.00 36 1008.6
20260503232522 76 181 1.0 4.0 0.00 0.00 0.00 36 1008.5
20260503232024 77 184 2.0 6.0 0.00 0.00 0.00 35 1008.5
20260503231519 77 165 2.0 5.0 0.00 0.00 0.00 35 1008.4
20260503231022 77 178 2.0 6.0 0.00 0.00 0.00 35 1008.4
20260503230523 77 195 1.0 4.0 0.00 0.00 0.00 36 1008.7
20260503230023 77 179 2.0 4.0 0.00 0.00 0.00 34 1008.6
20260503225523 77 164 2.0 7.0 0.00 0.00 0.00 35 1008.8
20260503225043 77 178 2.0 5.0 0.00 0.00 0.00 34 1008.6
20260503224523 77 194 1.0 5.0 0.00 0.00 0.00 34 1008.5
20260503224024 77 176 1.0 3.0 0.00 0.00 0.00 34 1008.6
20260503223528 77 183 2.0 4.0 0.00 0.00 0.00 34 1008.5
20260503223020 78 181 2.0 6.0 0.00 0.00 0.00 33 1008.5
20260503222520 78 167 2.0 8.0 0.00 0.00 0.00 33 1008.5
20260503222022 78 211 1.0 8.0 0.00 0.00 0.00 33 1008.5
20260503221522 78 173 2.0 5.0 0.00 0.00 0.00 33 1008.4
20260503221024 78 191 2.0 6.0 0.00 0.00 0.00 33 1008.5
20260503220524 78 173 2.0 6.0 0.00 0.00 0.00 33 1008.6
20260503220024 78 177 2.0 4.0 0.00 0.00 0.00 33 1008.5
20260503215521 78 189 1.0 5.0 0.00 0.00 0.00 33 1008.6
20260503215021 77 176 1.0 4.0 0.00 0.00 0.00 33 1008.6
20260503214521 77 165 3.0 6.0 0.00 0.00 0.00 33 1008.5
20260503214024 77 157 3.0 8.0 0.00 0.00 0.00 33 1008.6
20260503213520 77 179 2.0 6.0 0.00 0.00 0.00 33 1008.6
20260503213022 77 167 3.0 8.0 0.00 0.00 0.00 33 1008.5
20260503212521 77 182 2.0 5.0 0.00 0.00 0.00 34 1008.6
20260503212043 77 181 2.0 5.0 0.00 0.00 0.00 34 1008.9
20260503211542 76 182 3.0 6.0 0.00 0.00 0.00 34 1008.7
20260503211023 76 182 2.0 6.0 0.00 0.00 0.00 35 1008.9
20260503210522 76 170 3.0 9.0 0.00 0.00 0.00 34 1008.9
20260503210021 76 165 3.0 6.0 0.00 0.00 0.00 34 1008.9
20260503205523 76 180 3.0 7.0 0.00 0.00 0.00 34 1009.1
20260503205021 76 163 2.0 6.0 0.00 0.00 0.00 34 1009.2
20260503204522 76 187 3.0 6.0 0.00 0.00 0.00 34 1009.3
20260503204022 76 178 3.0 6.0 0.00 0.00 0.00 35 1009.4
20260503203522 75 167 4.0 9.0 0.00 0.00 0.00 35 1009.5
20260503203024 75 165 4.0 9.0 0.00 0.00 0.00 35 1009.5
20260503202524 75 163 3.0 7.0 0.00 0.00 0.00 35 1009.7
20260503202022 75 177 3.0 7.0 0.00 0.00 0.00 36 1009.7
20260503201522 75 176 3.0 7.0 0.00 0.00 0.00 36 1009.9
20260503201022 74 174 2.0 6.0 0.00 0.00 0.00 37 1010.2
20260503200525 74 162 4.0 7.0 0.00 0.00 0.00 36 1010.2
20260503200044 74 162 4.0 10.0 0.00 0.00 0.00 36 1010.2
20260503195543 74 167 4.0 10.0 0.00 0.00 0.00 36 1010.2
20260503195022 74 172 4.0 8.0 0.00 0.00 0.00 36 1010.5
20260503194520 73 177 3.0 6.0 0.00 0.00 0.00 37 1010.6
20260503194022 73 178 3.0 11.0 0.00 0.00 0.00 37 1010.7
20260503193521 73 158 4.0 11.0 0.00 0.00 0.00 36 1010.7
20260503193023 73 177 3.0 7.0 0.00 0.00 0.00 37 1010.9
20260503192526 73 179 3.0 7.0 0.00 0.00 0.00 37 1011.1
20260503192104 73 185 3.0 8.0 0.00 0.00 0.00 38 1011.4
20260503191525 72 176 3.0 6.0 0.00 0.00 0.00 38 1011.3
20260503191021 72 169 3.0 6.0 0.00 0.00 0.00 38 1011.4
20260503190540 71 174 3.0 7.0 0.00 0.00 0.00 38 1011.5
20260503190021 71 185 3.0 7.0 0.00 0.00 0.00 37 1011.4
20260503185521 71 175 2.0 6.0 0.00 0.00 0.00 38 1011.5
20260503185021 71 191 3.0 7.0 0.00 0.00 0.00 38 1011.5
20260503184541 71 172 3.0 8.0 0.00 0.00 0.00 38 1011.8
20260503184024 70 148 3.0 8.0 0.00 0.00 0.00 38 1011.7
20260503183542 70 171 3.0 6.0 0.00 0.00 0.00 38 1011.8
20260503183023 70 177 4.0 8.0 0.00 0.00 0.00 37 1011.8
20260503182523 70 175 3.0 7.0 0.00 0.00 0.00 38 1011.9
20260503182021 70 190 3.0 7.0 0.00 0.00 0.00 39 1012.2
20260503181522 70 171 3.0 8.0 0.00 0.00 0.00 38 1012.3
20260503181022 70 178 3.0 8.0 0.00 0.00 0.00 38 1012.5
20260503180524 70 183 4.0 9.0 0.00 0.00 0.00 38 1012.4
20260503180042 70 180 3.0 7.0 0.00 0.00 0.00 39 1012.8
20260503175521 69 179 3.0 8.0 0.00 0.00 0.00 39 1012.9
20260503175023 70 185 4.0 9.0 0.00 0.00 0.00 38 1012.8
20260503174523 70 175 2.0 5.0 0.00 0.00 0.00 39 1013.2
20260503174024 69 198 2.0 5.0 0.00 0.00 0.00 40 1013.5
20260503173520 68 190 2.0 6.0 0.00 0.00 0.00 42 1013.8
20260503173022 68 170 3.0 6.0 0.00 0.00 0.00 40 1013.9
20260503172523 68 210 2.0 5.0 0.00 0.00 0.00 41 1013.8
20260503172022 67 179 3.0 7.0 0.00 0.00 0.00 42 1014.1
20260503171524 67 189 3.0 7.0 0.00 0.00 0.00 42 1014.1
20260503171022 67 167 3.0 6.0 0.00 0.00 0.00 43 1014.1
20260503170543 67 169 3.0 7.0 0.00 0.00 0.00 42 1014.2
20260503150524 61 194 3.0 7.0 0.00 0.00 0.00 52 1018.9
20260503131035 51 175 2.0 3.0 0.00 0.00 0.00 67 1037.8
20260503130537 50 214 2.0 3.0 0.00 0.00 0.00 67 1037.4
20260503130116 50 200 2.0 3.0 0.00 0.00 0.00 68 1036.8
20260503110543 44 168 1.0 2.0 0.00 0.00 0.00 77 1035.3
20260503081525 46 204 1.0 2.0 0.00 0.00 0.00 74 1032.9
20260503081027 46 219 1.0 2.0 0.00 0.00 0.00 75 1033.4
20260503080526 46 205 1.0 2.0 0.00 0.00 0.00 76 1033.7
20260503072527 46 207 1.0 2.0 0.00 0.00 0.00 76 1034.7
20260503072023 46 211 1.0 3.0 0.00 0.00 0.00 76 1035.0
20260503071522 47 211 1.0 1.0 0.00 0.00 0.00 76 1035.0
20260503071042 47 204 1.0 3.0 0.00 0.00 0.00 76 1034.8
20260503070522 47 200 1.0 2.0 0.00 0.00 0.00 76 1035.0
20260503055024 45 26 2.0 3.0 0.00 0.00 0.00 78 1038.0
20260503054542 45 264 1.0 3.0 0.00 0.00 0.00 78 1038.3
20260503054044 45 21 1.0 3.0 0.00 0.00 0.00 79 1038.4
20260503053520 45 4 1.0 3.0 0.00 0.00 0.00 78 1037.9
20260503053024 46 266 1.0 2.0 0.00 0.00 0.00 78 1038.0
20260503052543 46 214 1.0 2.0 0.00 0.00 0.00 78 1037.8
20260503052023 46 216 1.0 2.0 0.00 0.00 0.00 78 1037.2
20260503051525 46 24 2.0 3.0 0.00 0.00 0.00 77 1036.0
20260503051025 46 335 1.0 3.0 0.00 0.00 0.00 77 1035.4
20260503050523 46 256 1.0 3.0 0.00 0.00 0.00 76 1035.3
20260503045520 46 351 1.0 3.0 0.00 0.00 0.00 74 1033.7
20260503045021 46 338 1.0 3.0 0.00 0.00 0.00 73 1033.7
20260503044520 46 232 1.0 3.0 0.00 0.00 0.00 74 1033.7
20260503044041 46 226 0.0 2.0 0.00 0.00 0.00 74 1033.7
20260503043541 46 221 0.0 2.0 0.00 0.00 0.00 74 1033.9
20260503043026 46 297 1.0 3.0 0.00 0.00 0.00 74 1034.0
20260503042522 47 250 0.0 2.0 0.00 0.00 0.00 71 1034.8
20260503042101 47 226 0.0 2.0 0.00 0.00 0.00 73 1034.2
20260503041521 47 3 1.0 3.0 0.00 0.00 0.00 72 1034.7
20260503041041 47 218 0.0 2.0 0.00 0.00 0.00 71 1035.5
20260503040521 47 8 1.0 3.0 0.00 0.00 0.00 70 1036.6
20260503040023 48 20 1.0 3.0 0.00 0.00 0.00 70 1036.4
20260503035522 48 14 1.0 3.0 0.00 0.00 0.00 69 1037.5
20260503035022 48 26 1.0 3.0 0.00 0.00 0.00 68 1038.3
20260503034522 48 20 2.0 3.0 0.00 0.00 0.00 68 1038.4
20260503034021 48 16 1.0 3.0 0.00 0.00 0.00 68 1038.3
20260503033522 48 4 1.0 3.0 0.00 0.00 0.00 67 1038.9
20260503033043 49 315 1.0 3.0 0.00 0.00 0.00 67 1039.0
20260503032523 49 222 0.0 2.0 0.00 0.00 0.00 67 1039.1
20260503032024 49 18 1.0 3.0 0.00 0.00 0.00 66 1039.1
20260503031523 49 23 2.0 3.0 0.00 0.00 0.00 65 1039.1
20260503031023 49 229 1.0 3.0 0.00 0.00 0.00 65 1038.9
20260503030542 49 325 2.0 3.0 0.00 0.00 0.00 63 1037.0
20260503030043 50 15 3.0 3.0 0.00 0.00 0.00 64 1037.6
20260503025520 50 244 2.0 3.0 0.00 0.00 0.00 65 1039.2
20260503025022 50 240 2.0 3.0 0.00 0.00 0.00 64 1038.4
20260503024520 50 229 3.0 3.0 0.00 0.00 0.00 62 1036.0
20260503024023 50 239 3.0 3.0 0.00 0.00 0.00 61 1034.3
20260503023523 50 276 3.0 3.0 0.00 0.00 0.00 61 1034.5
20260503023023 50 4 3.0 4.0 0.00 0.00 0.00 62 1036.4
20260503022522 51 355 3.0 4.0 0.00 0.00 0.00 62 1037.2
20260503022024 51 240 3.0 3.0 0.00 0.00 0.00 62 1037.7